OPS 4682 DEB, 38361

Orbit data source: Space-Track

OPS 4682 DEB, 38361 is space debris in LEO originally from a launch on Sat, 03 Apr 1965 UTC launched from the Air Force Western Test Range (AFWTR). Debris objects in space refer to the collection of defunct objects orbiting the Earth. Examples of debris include non-operational satellites, rocket bodies, and fragments generated from explosions, collisions, or faulty payload assembly.

Loading next visibility...
Identifier
38361, 1965-027BN
Orbit
LEO
Country
Flag of USUS
Related business
Manufacturer
Unknown
Mission
Spacecraft
Bus & Motor
Unknown
Mass
Unknown
Launch date (UTC)
1965-04-03 (61 years ago)
Launch vehicle
Unknown
Launch site
Air Force Western Test Range (AFWTR)
Object type
Payload
Rocket body
Debris
Shape & HBR
Unknown shape, 0.1 m
Radar Cross Section
Small (<0.1 m²)

Expand to show TLE details & history
Last TLE update: 3 days ago

TLE from 3 days ago
0 OPS 4682 DEB
1 38361U 65027BN  26101.69013559 -.00000487  00000-0 -16330-2 0  9995
2 38361  90.2459  10.1950 0035015  73.0614 287.4342 13.00343773577306
Epoch: 2026-04-11T16:33Z
TLE epoch observation values (Epoch: 2026-04-11T16:33:47.714Z)
Latitude
-0.00005°
Longitude
-78.15963°
Altitude
1,255.694 km
Speed
7.231 km/s
True Right ascension
00h 40m 46s
True Declination
0° 00' 00"
Sunlit
Object was in daylight at epoch
Visualization orbit readout
Latitude
Unknown
Longitude
Unknown
Altitude
Unknown
Speed
Unknown
Apparent Right ascension
Unknown
Apparent Declination
Unknown
Sunlit
N/A
Visualization observer readout
Local Sidereal Time
22:59:40
Azimuth
Unknown
Elevation
Unknown
Doppler factor
Unknown
Orbital elements
Apogee altitude
1,284.604 km
Perigee altitude
1,231.129 km
Semi-major axis
7,636.003 km
Eccentricity
0.0035
Inclination
90.2459°
RAAN
10.195°
Arg. of periapsis
73.0614°
True anomaly
287.05089°
Mean anomaly
287.4342°
Eccentric anomaly
287.2426°
Mean motion
3.2527 °/min
Orbital period
110.68 mins
BSTAR
-0.001633
Loading maneuver chart data...
Computing Atmospheric mass density...
Loading historical data...
Loading historical data...
Loading historical data...
Loading historical data...
Loading historical data...
Loading historical data...
Loading historical data...

Documentation

Showing up to 5 results
|